When you browse on this site, cookies collect data to enhance your experience and personalize the content and advertising you see.
Visit our Privacy Policy to learn more. By continuing to use the site, you agree to this use of cookies and data.
  • In Sweden
  • List of Countries
  • For 7 days
  • Water Temperature
  • Satellite Maps
  • Weather Map
  • Weather Widgets
  • user-avatar
    Login

    Hourly Weather Bor

    Today, 21 January, Monday

    Time Temperature Precipitation Wind Pressure Humidity
    00:00 -2°C° 0 mm 2 mps 665 mmHg 69%
    01:00 -2°C° 0 mm 2 mps 664 mmHg 69%
    02:00 -1°C° 0 mm 2 mps 664 mmHg 73%
    03:00 -1°C° 0 mm 2 mps 664 mmHg 72%
    04:00 -1°C° 0 mm 2 mps 664 mmHg 72%
    05:00 -1°C° 0 mm 2 mps 664 mmHg 72%
    06:00 -1°C° 0 mm 2 mps 664 mmHg 73%
    07:00 -1°C° 0 mm 2 mps 664 mmHg 74%
    08:00 +1°C° 0 mm 2 mps 665 mmHg 77%
    09:00 +2°C° 0 mm 2 mps 665 mmHg 81%
    10:00 +3°C° 0 mm 2 mps 665 mmHg 85%
    11:00 +3°C° 0 mm 3 mps 665 mmHg 89%
    12:00 +3°C° 0 mm 3 mps 664 mmHg 88%
    13:00 +3°C° 0 mm 3 mps 664 mmHg 87%
    14:00 +3°C° 0 mm 3 mps 664 mmHg 86%
    15:00 +2°C° 0 mm 3 mps 663 mmHg 83%
    16:00 +1°C° 0 mm 3 mps 663 mmHg 80%
    17:00 0°C° 0 mm 3 mps 663 mmHg 77%
    18:00 0°C° 0.1 mm 3 mps 663 mmHg 77%
    19:00 0°C° 0.1 mm 3 mps 663 mmHg 77%
    20:00 -1°C° 0.1 mm 3 mps 663 mmHg 77%
    21:00 +1°C° 0.1 mm 2 mps 663 mmHg 78%
    22:00 +1°C° 0.1 mm 2 mps 663 mmHg 80%
    23:00 +1°C° 0.1 mm 2 mps 663 mmHg 82%

    Tomorrow, 22 January, Tuesday

    Time Temperature Precipitation Wind Pressure Humidity
    00:00 +1°C° 0.2 mm 2 mps 663 mmHg 83%
    01:00 +1°C° 0.2 mm 2 mps 663 mmHg 84%
    02:00 +1°C° 0.2 mm 2 mps 663 mmHg 85%
    03:00 +1°C° 0.1 mm 2 mps 663 mmHg 84%
    04:00 +1°C° 0.1 mm 2 mps 663 mmHg 84%
    05:00 +1°C° 0.1 mm 2 mps 663 mmHg 83%
    06:00 +2°C° 0.1 mm 1 mps 663 mmHg 82%
    07:00 +2°C° 0.1 mm 1 mps 663 mmHg 81%
    08:00 +2°C° 0.1 mm 1 mps 663 mmHg 80%
    09:00 +3°C° 0 mm 1 mps 663 mmHg 82%
    10:00 +4°C° 0 mm 1 mps 664 mmHg 83%
    11:00 +5°C° 0 mm 1 mps 664 mmHg 84%
    12:00 +5°C° 0 mm 1 mps 664 mmHg 83%
    13:00 +5°C° 0 mm 1 mps 663 mmHg 83%
    14:00 +6°C° 0 mm 1 mps 663 mmHg 82%
    15:00 +4°C° 0 mm 1 mps 663 mmHg 81%
    16:00 +3°C° 0 mm 1 mps 662 mmHg 80%
    17:00 +2°C° 0 mm 1 mps 662 mmHg 79%
    18:00 +2°C° 0 mm 1 mps 662 mmHg 78%
    19:00 -1°C° 0 mm 2 mps 662 mmHg 77%
    20:00 -1°C° 0 mm 2 mps 662 mmHg 76%
    21:00 -1°C° 0 mm 2 mps 662 mmHg 76%
    22:00 -1°C° 0 mm 2 mps 662 mmHg 76%
    23:00 -1°C° 0 mm 2 mps 663 mmHg 77%

    Day after tomorrow, 23 January, Wednesday

    Time Temperature Precipitation Wind Pressure Humidity
    00:00 -1°C° 0 mm 2 mps 663 mmHg 77%
    01:00 -1°C° 0 mm 2 mps 663 mmHg 77%
    02:00 -1°C° 0 mm 2 mps 663 mmHg 78%
    03:00 -1°C° 0 mm 2 mps 662 mmHg 78%
    04:00 -1°C° 0 mm 2 mps 662 mmHg 78%
    05:00 -1°C° 0 mm 2 mps 662 mmHg 78%
    06:00 -1°C° 0 mm 2 mps 662 mmHg 77%
    07:00 -1°C° 0 mm 2 mps 663 mmHg 76%
    08:00 -1°C° 0 mm 2 mps 663 mmHg 76%
    09:00 +2°C° 0 mm 2 mps 663 mmHg 76%
    10:00 +3°C° 0 mm 2 mps 663 mmHg 76%
    11:00 +5°C° 0 mm 2 mps 664 mmHg 76%
    12:00 +4°C° 0 mm 3 mps 663 mmHg 76%
    13:00 +4°C° 0 mm 3 mps 663 mmHg 76%
    14:00 +5°C° 0 mm 3 mps 662 mmHg 75%
    15:00 +3°C° 0 mm 3 mps 662 mmHg 77%
    16:00 +2°C° 0 mm 3 mps 662 mmHg 79%
    17:00 +1°C° 0 mm 3 mps 661 mmHg 80%
    18:00 +1°C° 0 mm 3 mps 661 mmHg 80%
    19:00 0°C° 0 mm 3 mps 662 mmHg 79%
    20:00 0°C° 0 mm 3 mps 662 mmHg 78%
    21:00 0°C° 0 mm 3 mps 662 mmHg 78%
    22:00 0°C° 0 mm 3 mps 662 mmHg 77%
    23:00 0°C° 0 mm 3 mps 661 mmHg 77%

    24 January, Thursday

    Time Temperature Precipitation Wind Pressure Humidity
    00:00 0°C° 0 mm 3 mps 661 mmHg 77%
    01:00 0°C° 0 mm 3 mps 661 mmHg 78%
    02:00 0°C° 0 mm 3 mps 661 mmHg 78%
    03:00 -1°C° 0 mm 4 mps 660 mmHg 77%
    04:00 -2°C° 0 mm 4 mps 660 mmHg 75%
    05:00 -2°C° 0 mm 4 mps 660 mmHg 73%
    06:00 -1°C° 0 mm 4 mps 660 mmHg 71%
    07:00 -1°C° 0 mm 4 mps 660 mmHg 69%
    08:00 0°C° 0 mm 5 mps 660 mmHg 67%
    09:00 +1°C° 0 mm 5 mps 660 mmHg 65%
    10:00 +3°C° 0 mm 6 mps 660 mmHg 63%
    11:00 +4°C° 0 mm 6 mps 660 mmHg 61%
    12:00 +4°C° 0 mm 6 mps 660 mmHg 61%
    13:00 +6°C° 0 mm 5 mps 659 mmHg 61%
    14:00 +6°C° 0 mm 5 mps 659 mmHg 62%
    15:00 +4°C° 0 mm 6 mps 658 mmHg 64%
    16:00 +3°C° 0 mm 6 mps 658 mmHg 66%
    17:00 +1°C° 0 mm 6 mps 657 mmHg 68%
    18:00 +1°C° 0.1 mm 6 mps 658 mmHg 72%
    19:00 +1°C° 0.1 mm 6 mps 658 mmHg 76%
    20:00 +1°C° 0.1 mm 6 mps 658 mmHg 81%
    21:00 +1°C° 0 mm 6 mps 658 mmHg 80%
    22:00 +1°C° 0 mm 6 mps 658 mmHg 80%
    23:00 0°C° 0 mm 7 mps 658 mmHg 79%

    25 January, Friday

    Time Temperature Precipitation Wind Pressure Humidity
    00:00 +1°C° 0 mm 6 mps 658 mmHg 80%
    01:00 0°C° 0 mm 5 mps 658 mmHg 80%
    02:00 0°C° 0 mm 4 mps 658 mmHg 81%
    03:00 0°C° 0 mm 4 mps 659 mmHg 81%
    04:00 +1°C° 0 mm 3 mps 659 mmHg 81%
    05:00 +1°C° 0 mm 3 mps 659 mmHg 81%
    06:00 +1°C° 0 mm 3 mps 659 mmHg 80%
    07:00 +1°C° 0 mm 3 mps 660 mmHg 79%
    08:00 +2°C° 0 mm 3 mps 660 mmHg 78%
    09:00 +3°C° 0 mm 3 mps 661 mmHg 78%
    10:00 +4°C° 0 mm 3 mps 661 mmHg 77%
    11:00 +7°C° 0 mm 3 mps 661 mmHg 77%
    12:00 +7°C° 0 mm 3 mps 661 mmHg 77%
    13:00 +6°C° 0 mm 4 mps 661 mmHg 76%
    14:00 +6°C° 0 mm 4 mps 660 mmHg 76%
    15:00 +5°C° 0 mm 4 mps 660 mmHg 79%
    16:00 +4°C° 0 mm 4 mps 659 mmHg 81%
    17:00 +3°C° 0 mm 4 mps 659 mmHg 83%
    18:00 +1°C° 0 mm 4 mps 659 mmHg 84%
    19:00 +1°C° 0 mm 4 mps 659 mmHg 84%
    20:00 +1°C° 0 mm 3 mps 659 mmHg 84%
    21:00 +1°C° 0 mm 3 mps 659 mmHg 84%
    22:00 +1°C° 0 mm 3 mps 659 mmHg 84%
    23:00 +1°C° 0 mm 3 mps 659 mmHg 85%

    26 January, Saturday

    Time Temperature Precipitation Wind Pressure Humidity
    00:00 +1°C° 0 mm 3 mps 659 mmHg 85%
    01:00 +1°C° 0 mm 3 mps 659 mmHg 86%
    02:00 +1°C° 0 mm 3 mps 658 mmHg 86%
    03:00 -1°C° 0 mm 4 mps 658 mmHg 85%
    04:00 -1°C° 0 mm 4 mps 658 mmHg 85%
    05:00 -1°C° 0 mm 4 mps 657 mmHg 84%
    06:00 0°C° 0 mm 4 mps 658 mmHg 83%
    07:00 0°C° 0 mm 4 mps 658 mmHg 81%
    08:00 +1°C° 0 mm 5 mps 658 mmHg 80%
    09:00 +2°C° 0 mm 5 mps 658 mmHg 77%
    10:00 +3°C° 0 mm 5 mps 658 mmHg 74%
    11:00 +4°C° 0 mm 6 mps 659 mmHg 70%
    12:00 +4°C° 0 mm 6 mps 658 mmHg 70%
    13:00 +5°C° 0 mm 5 mps 658 mmHg 69%
    14:00 +5°C° 0 mm 5 mps 658 mmHg 69%
    15:00 +3°C° 0 mm 5 mps 658 mmHg 72%
    16:00 +3°C° 0 mm 4 mps 657 mmHg 75%
    17:00 +1°C° 0 mm 4 mps 657 mmHg 78%
    18:00 +1°C° 0 mm 4 mps 657 mmHg 79%
    19:00 +1°C° 0 mm 4 mps 658 mmHg 80%
    20:00 0°C° 0 mm 4 mps 658 mmHg 82%
    21:00 0°C° 0 mm 4 mps 658 mmHg 82%
    22:00 +1°C° 0 mm 3 mps 658 mmHg 82%
    23:00 +1°C° 0 mm 3 mps 658 mmHg 81%
    Show more